Terminal Aerodrome Forecast
Issued by NWS

Home | Current Version | Previous Version | Text Only | Print | Product List | Glossary On
Versions: 1 2 3 4 5 6 7 8 9 10 11 12 13
000
FTUS46 KMFR 291700
TAFLMT
TAF
KLMT 291738Z 2918/3018 VRB03KT 6SM FU SCT040
     FM292100 29012G21KT 6SM HZ SKC
     FM300300 31007KT P6SM SKC
     FM300700 VRB03KT P6SM SKC=

USA.gov is the U.S. government's official web portal to all federal, state and local government web resources and services.